Tracking 19245 objects as of 18-Aug-2018
HD Live streaming from Space Station
objects crossing your sky now

NOAA 16 DEB

Track NOAA 16 DEB now!
10-day predictions


NORAD ID: 41066
Int'l Code: 2000-055Z
Perigee: 835.2 km
Apogee: 860.6 km
Inclination: 98.9 °
Period: 101.7 minutes
Semi major axis: 7218 km
RCS: Unknown
Launch date: September 21, 2000
Source: United States (US)
Launch site: AIR FORCE WESTERN TEST RANGE (AFWTR)

Note: This is SATELLITE DEBRIS
aabbcc
Your satellite tracking list
Your tracking list is empty




NASA's NSSDC Master Catalog

Two Line Element Set (TLE):
1 41066U 00055Z   18230.21523842  .00000170  00000-0  10976-3 0  9992
2 41066  98.8574 308.9190 0017628 166.8299 193.3338 14.15460224140920
Source of the keplerian elements: AFSPC